| time (UTC) | temp C | wind direction | speed KPH | gust KPH | rain 1hr cm | rain 24hr cm | rain mn cm | humidity % | barometer mb |
| 20260504100542 | 6 | 111 | 0.0 | 3.2 | 0.00 | 0.00 | 0.00 | 89 | 1016.8 |
| 20260504090105 | 6 | 58 | 0.0 | 4.8 | 0.00 | 0.00 | 0.00 | 88 | 1017.0 |
| 20260504081554 | 6 | 82 | 1.6 | 4.8 | 0.00 | 0.00 | 0.00 | 88 | 1016.7 |
| 20260504081038 | 6 | 86 | 1.6 | 4.8 | 0.00 | 0.00 | 0.00 | 88 | 1016.5 |
| 20260504080538 | 6 | 86 | 1.6 | 3.2 | 0.00 | 0.00 | 0.00 | 88 | 1016.6 |
| 20260504050539 | 8 | 60 | 1.6 | 3.2 | 0.00 | 0.00 | 0.00 | 84 | 1017.7 |
| 20260504045541 | 8 | 0 | 1.6 | 3.2 | 0.00 | 0.00 | 0.00 | 83 | 1017.4 |
| 20260504045038 | 8 | 0 | 1.6 | 3.2 | 0.00 | 0.00 | 0.00 | 82 | 1017.4 |
| 20260504044548 | 8 | 94 | 0.0 | 3.2 | 0.00 | 0.00 | 0.00 | 82 | 1017.4 |
| 20260504044038 | 8 | 0 | 1.6 | 3.2 | 0.00 | 0.00 | 0.00 | 81 | 1017.4 |
| 20260504043539 | 8 | 95 | 0.0 | 3.2 | 0.00 | 0.00 | 0.00 | 81 | 1017.3 |
| 20260504043052 | 8 | 0 | 0.0 | 3.2 | 0.00 | 0.00 | 0.00 | 81 | 1017.3 |
| 20260504042544 | 8 | 0 | 0.0 | 4.8 | 0.00 | 0.00 | 0.00 | 81 | 1017.4 |
| 20260504042039 | 9 | 95 | 1.6 | 4.8 | 0.00 | 0.00 | 0.00 | 81 | 1017.3 |
| 20260504041552 | 9 | 60 | 0.0 | 4.8 | 0.00 | 0.00 | 0.00 | 81 | 1017.4 |
| 20260504041038 | 9 | 71 | 1.6 | 4.8 | 0.00 | 0.00 | 0.00 | 81 | 1017.3 |
| 20260504040539 | 9 | 20 | 0.0 | 3.2 | 0.00 | 0.00 | 0.00 | 80 | 1017.3 |
| 20260504040051 | 9 | 0 | 1.6 | 3.2 | 0.00 | 0.00 | 0.00 | 80 | 1017.2 |
| 20260504035538 | 10 | 74 | 1.6 | 4.8 | 0.00 | 0.00 | 0.00 | 80 | 1017.1 |
| 20260504035038 | 10 | 74 | 0.0 | 4.8 | 0.00 | 0.00 | 0.00 | 80 | 1017.2 |
| 20260504034545 | 10 | 55 | 0.0 | 4.8 | 0.00 | 0.00 | 0.00 | 80 | 1017.1 |
| 20260504034040 | 10 | 59 | 1.6 | 4.8 | 0.00 | 0.00 | 0.00 | 80 | 1016.9 |
| 20260504033540 | 10 | 49 | 1.6 | 4.8 | 0.00 | 0.00 | 0.00 | 80 | 1016.8 |
| 20260504033053 | 10 | 0 | 0.0 | 4.8 | 0.00 | 0.00 | 0.00 | 80 | 1016.7 |
| 20260504032539 | 10 | 109 | 1.6 | 4.8 | 0.00 | 0.00 | 0.00 | 80 | 1016.7 |
| 20260504032041 | 10 | 74 | 1.6 | 4.8 | 0.00 | 0.00 | 0.00 | 80 | 1016.7 |
| 20260504031552 | 10 | 90 | 1.6 | 3.2 | 0.00 | 0.00 | 0.00 | 78 | 1016.8 |
| 20260504031041 | 10 | 90 | 0.0 | 3.2 | 0.00 | 0.00 | 0.00 | 78 | 1016.9 |
| 20260504030539 | 10 | 90 | 1.6 | 3.2 | 0.00 | 0.00 | 0.00 | 78 | 1017.0 |
| 20260504030047 | 10 | 74 | 1.6 | 3.2 | 0.00 | 0.00 | 0.00 | 78 | 1017.0 |
| 20260504025538 | 10 | 99 | 1.6 | 3.2 | 0.00 | 0.00 | 0.00 | 77 | 1016.8 |
| 20260504025038 | 10 | 99 | 1.6 | 3.2 | 0.00 | 0.00 | 0.00 | 77 | 1016.9 |
| 20260504024550 | 10 | 96 | 1.6 | 3.2 | 0.00 | 0.00 | 0.00 | 76 | 1016.9 |
| 20260504024039 | 11 | 81 | 1.6 | 3.2 | 0.00 | 0.00 | 0.00 | 76 | 1016.9 |
| 20260504023539 | 11 | 73 | 1.6 | 3.2 | 0.00 | 0.00 | 0.00 | 76 | 1017.1 |
| 20260504023050 | 11 | 73 | 1.6 | 3.2 | 0.00 | 0.00 | 0.00 | 76 | 1017.1 |
| 20260504022538 | 11 | 73 | 1.6 | 3.2 | 0.00 | 0.00 | 0.00 | 76 | 1017.0 |
| 20260504022037 | 11 | 60 | 1.6 | 4.8 | 0.00 | 0.00 | 0.00 | 75 | 1016.9 |
| 20260504021553 | 11 | 0 | 0.0 | 4.8 | 0.00 | 0.00 | 0.00 | 75 | 1016.9 |
| 20260504021042 | 11 | 38 | 1.6 | 4.8 | 0.00 | 0.00 | 0.00 | 75 | 1016.9 |
| 20260504020538 | 12 | 22 | 3.2 | 4.8 | 0.00 | 0.00 | 0.00 | 75 | 1017.0 |
| 20260504020054 | 12 | 49 | 0.0 | 3.2 | 0.00 | 0.00 | 0.00 | 73 | 1016.8 |
| 20260504015541 | 12 | 49 | 0.0 | 3.2 | 0.00 | 0.00 | 0.00 | 72 | 1016.7 |
| 20260504015039 | 12 | 49 | 1.6 | 3.2 | 0.00 | 0.00 | 0.00 | 71 | 1016.7 |
| 20260504014553 | 12 | 49 | 0.0 | 1.6 | 0.00 | 0.00 | 0.00 | 69 | 1016.5 |
| 20260504014039 | 12 | 0 | 0.0 | 3.2 | 0.00 | 0.00 | 0.00 | 68 | 1016.5 |
| 20260504013538 | 12 | 0 | 0.0 | 3.2 | 0.00 | 0.00 | 0.00 | 67 | 1016.5 |
| 20260504013052 | 12 | 49 | 1.6 | 3.2 | 0.00 | 0.00 | 0.00 | 67 | 1016.5 |
| 20260504012539 | 12 | 49 | 0.0 | 3.2 | 0.00 | 0.00 | 0.00 | 67 | 1016.5 |
| 20260504012040 | 12 | 49 | 1.6 | 3.2 | 0.00 | 0.00 | 0.00 | 66 | 1016.5 |
| 20260504011547 | 12 | 49 | 0.0 | 3.2 | 0.00 | 0.00 | 0.00 | 65 | 1016.5 |
| 20260504011038 | 12 | 0 | 1.6 | 3.2 | 0.00 | 0.00 | 0.00 | 65 | 1016.5 |
| 20260504010537 | 13 | 49 | 1.6 | 3.2 | 0.00 | 0.00 | 0.00 | 64 | 1016.4 |
| 20260504010058 | 13 | 69 | 1.6 | 3.2 | 0.00 | 0.00 | 0.00 | 64 | 1016.5 |
| 20260504005538 | 13 | 0 | 0.0 | 3.2 | 0.00 | 0.00 | 0.00 | 62 | 1016.3 |
| 20260504005043 | 13 | 0 | 0.0 | 3.2 | 0.00 | 0.00 | 0.00 | 61 | 1016.3 |
| 20260504004555 | 13 | 69 | 1.6 | 3.2 | 0.00 | 0.00 | 0.00 | 60 | 1016.2 |
| 20260504004039 | 14 | 61 | 1.6 | 6.4 | 0.00 | 0.00 | 0.00 | 61 | 1016.2 |
| 20260504003538 | 14 | 0 | 3.2 | 6.4 | 0.00 | 0.00 | 0.00 | 61 | 1016.1 |
| 20260504003049 | 14 | 5 | 3.2 | 6.4 | 0.00 | 0.00 | 0.00 | 61 | 1016.1 |
| 20260504002538 | 15 | 355 | 3.2 | 6.4 | 0.00 | 0.00 | 0.00 | 61 | 1016.0 |
| 20260504002038 | 15 | 350 | 3.2 | 6.4 | 0.00 | 0.00 | 0.00 | 57 | 1016.0 |
| 20260504001548 | 15 | 355 | 3.2 | 4.8 | 0.00 | 0.00 | 0.00 | 56 | 1016.0 |
| 20260504001038 | 16 | 355 | 1.6 | 6.4 | 0.00 | 0.00 | 0.00 | 50 | 1016.0 |
| 20260504000539 | 16 | 355 | 3.2 | 8.0 | 0.00 | 0.00 | 0.00 | 51 | 1016.0 |
| 20260504000113 | 16 | 14 | 4.8 | 8.0 | 0.00 | 0.00 | 0.00 | 48 | 1016.0 |
| 20260503235540 | 16 | 352 | 3.2 | 14.5 | 0.00 | 0.00 | 0.00 | 47 | 1016.0 |
| 20260503235041 | 16 | 348 | 6.4 | 14.5 | 0.00 | 0.00 | 0.00 | 46 | 1016.0 |
| 20260503234553 | 17 | 355 | 4.8 | 14.5 | 0.00 | 0.00 | 0.00 | 46 | 1016.1 |
| 20260503234040 | 17 | 348 | 4.8 | 14.5 | 0.00 | 0.00 | 0.00 | 48 | 1016.0 |
| 20260503233541 | 17 | 26 | 6.4 | 16.1 | 0.00 | 0.00 | 0.00 | 45 | 1015.9 |
| 20260503233048 | 17 | 336 | 6.4 | 17.7 | 0.00 | 0.00 | 0.00 | 45 | 1015.9 |
| 20260503232540 | 17 | 352 | 9.7 | 19.3 | 0.00 | 0.00 | 0.00 | 44 | 1016.0 |
| 20260503232040 | 17 | 349 | 9.7 | 19.3 | 0.00 | 0.00 | 0.00 | 47 | 1016.0 |
| 20260503231548 | 17 | 335 | 11.3 | 19.3 | 0.00 | 0.00 | 0.00 | 44 | 1015.9 |
| 20260503231041 | 17 | 5 | 9.7 | 17.7 | 0.00 | 0.00 | 0.00 | 45 | 1015.9 |
| 20260503230542 | 17 | 5 | 9.7 | 17.7 | 0.00 | 0.00 | 0.00 | 44 | 1016.0 |
| 20260503230055 | 17 | 337 | 6.4 | 17.7 | 0.00 | 0.00 | 0.00 | 43 | 1016.0 |
| 20260503225540 | 17 | 333 | 9.7 | 17.7 | 0.00 | 0.00 | 0.00 | 42 | 1016.0 |
| 20260503225040 | 17 | 348 | 9.7 | 16.1 | 0.00 | 0.00 | 0.00 | 45 | 1015.9 |
| 20260503224548 | 17 | 352 | 11.3 | 16.1 | 0.00 | 0.00 | 0.00 | 41 | 1015.9 |
| 20260503224041 | 17 | 344 | 8.0 | 16.1 | 0.00 | 0.00 | 0.00 | 44 | 1015.9 |
| 20260503223540 | 17 | 49 | 8.0 | 19.3 | 0.00 | 0.00 | 0.00 | 42 | 1015.9 |
| 20260503223057 | 17 | 28 | 8.0 | 19.3 | 0.00 | 0.00 | 0.00 | 43 | 1015.7 |
| 20260503222539 | 17 | 11 | 6.4 | 17.7 | 0.00 | 0.00 | 0.00 | 42 | 1015.9 |
| 20260503222040 | 17 | 329 | 8.0 | 17.7 | 0.00 | 0.00 | 0.00 | 41 | 1015.9 |
| 20260503221546 | 17 | 348 | 9.7 | 17.7 | 0.00 | 0.00 | 0.00 | 42 | 1015.9 |
| 20260503221040 | 17 | 319 | 9.7 | 22.5 | 0.00 | 0.00 | 0.00 | 42 | 1015.9 |
| 20260503220540 | 17 | 320 | 8.0 | 22.5 | 0.00 | 0.00 | 0.00 | 41 | 1015.9 |
| 20260503220052 | 17 | 5 | 11.3 | 22.5 | 0.00 | 0.00 | 0.00 | 41 | 1016.0 |
| 20260503215540 | 17 | 307 | 9.7 | 20.9 | 0.00 | 0.00 | 0.00 | 44 | 1016.0 |
| 20260503215041 | 17 | 288 | 4.8 | 22.5 | 0.00 | 0.00 | 0.00 | 42 | 1016.0 |
| 20260503214550 | 17 | 360 | 9.7 | 22.5 | 0.00 | 0.00 | 0.00 | 42 | 1016.2 |
| 20260503214044 | 17 | 360 | 11.3 | 22.5 | 0.00 | 0.00 | 0.00 | 44 | 1016.1 |
| 20260503213541 | 17 | 44 | 12.9 | 24.1 | 0.00 | 0.00 | 0.00 | 42 | 1016.1 |
| 20260503213047 | 17 | 16 | 11.3 | 24.1 | 0.00 | 0.00 | 0.00 | 43 | 1016.0 |
| 20260503212540 | 17 | 350 | 11.3 | 22.5 | 0.00 | 0.00 | 0.00 | 43 | 1016.1 |
| 20260503212039 | 17 | 355 | 12.9 | 24.1 | 0.00 | 0.00 | 0.00 | 42 | 1016.1 |
| 20260503211548 | 17 | 31 | 12.9 | 24.1 | 0.00 | 0.00 | 0.00 | 41 | 1016.1 |
| 20260503211039 | 17 | 39 | 11.3 | 17.7 | 0.00 | 0.00 | 0.00 | 40 | 1016.2 |
| 20260503210540 | 17 | 38 | 8.0 | 20.9 | 0.00 | 0.00 | 0.00 | 40 | 1016.2 |
| 20260503210047 | 17 | 298 | 9.7 | 20.9 | 0.00 | 0.00 | 0.00 | 41 | 1016.3 |
| 20260503205539 | 17 | 284 | 11.3 | 20.9 | 0.00 | 0.00 | 0.00 | 42 | 1016.2 |
| 20260503205038 | 17 | 338 | 11.3 | 19.3 | 0.00 | 0.00 | 0.00 | 47 | 1016.2 |
| 20260503204545 | 17 | 252 | 6.4 | 16.1 | 0.00 | 0.00 | 0.00 | 48 | 1016.2 |
| 20260503204038 | 17 | 239 | 3.2 | 20.9 | 0.00 | 0.00 | 0.00 | 47 | 1016.2 |
| 20260503203538 | 17 | 263 | 12.9 | 20.9 | 0.00 | 0.00 | 0.00 | 51 | 1016.4 |
| 20260503203053 | 18 | 265 | 11.3 | 20.9 | 0.00 | 0.00 | 0.00 | 47 | 1016.4 |
| 20260503202538 | 17 | 97 | 1.6 | 4.8 | 0.00 | 0.00 | 0.00 | 46 | 1016.4 |
| 20260503202038 | 17 | 0 | 0.0 | 11.3 | 0.00 | 0.00 | 0.00 | 47 | 1016.6 |
| 20260503201546 | 17 | 0 | 3.2 | 16.1 | 0.00 | 0.00 | 0.00 | 47 | 1016.6 |
| 20260503201038 | 17 | 240 | 6.4 | 16.1 | 0.00 | 0.00 | 0.00 | 49 | 1016.7 |
| 20260503200539 | 17 | 237 | 4.8 | 16.1 | 0.00 | 0.00 | 0.00 | 50 | 1016.8 |
| 20260503200056 | 17 | 217 | 8.0 | 17.7 | 0.00 | 0.00 | 0.00 | 47 | 1016.9 |
| 20260503195538 | 17 | 288 | 8.0 | 17.7 | 0.00 | 0.00 | 0.00 | 47 | 1016.9 |
| 20260503195038 | 17 | 281 | 9.7 | 17.7 | 0.00 | 0.00 | 0.00 | 50 | 1016.9 |
| 20260503194548 | 17 | 257 | 11.3 | 16.1 | 0.00 | 0.00 | 0.00 | 48 | 1017.0 |
| 20260503194039 | 17 | 304 | 6.4 | 12.9 | 0.00 | 0.00 | 0.00 | 46 | 1017.0 |
| 20260503193540 | 17 | 276 | 6.4 | 12.9 | 0.00 | 0.00 | 0.00 | 46 | 1017.1 |
| 20260503193049 | 17 | 84 | 4.8 | 12.9 | 0.00 | 0.00 | 0.00 | 46 | 1017.2 |
| 20260503192538 | 17 | 83 | 3.2 | 12.9 | 0.00 | 0.00 | 0.00 | 47 | 1017.2 |
| 20260503192039 | 17 | 276 | 3.2 | 12.9 | 0.00 | 0.00 | 0.00 | 48 | 1017.3 |
| 20260503191551 | 17 | 48 | 1.6 | 12.9 | 0.00 | 0.00 | 0.00 | 48 | 1017.4 |
| 20260503191038 | 16 | 337 | 3.2 | 6.4 | 0.00 | 0.00 | 0.00 | 47 | 1017.4 |
| 20260503190543 | 16 | 240 | 1.6 | 12.9 | 0.00 | 0.00 | 0.00 | 45 | 1017.5 |
| 20260503190048 | 16 | 0 | 4.8 | 16.1 | 0.00 | 0.00 | 0.00 | 47 | 1017.5 |
| 20260503185538 | 16 | 282 | 4.8 | 16.1 | 0.00 | 0.00 | 0.00 | 46 | 1017.5 |
| 20260503185041 | 16 | 256 | 4.8 | 19.3 | 0.00 | 0.00 | 0.00 | 48 | 1017.6 |
| 20260503184603 | 16 | 214 | 11.3 | 19.3 | 0.00 | 0.00 | 0.00 | 46 | 1017.7 |
| 20260503184038 | 16 | 217 | 6.4 | 12.9 | 0.00 | 0.00 | 0.00 | 48 | 1017.7 |
| 20260503183538 | 16 | 271 | 4.8 | 9.7 | 0.00 | 0.00 | 0.00 | 47 | 1017.7 |
| 20260503183052 | 16 | 338 | 1.6 | 9.7 | 0.00 | 0.00 | 0.00 | 47 | 1017.8 |
| 20260503182537 | 16 | 274 | 1.6 | 9.7 | 0.00 | 0.00 | 0.00 | 47 | 1017.8 |
| 20260503182040 | 16 | 269 | 3.2 | 14.5 | 0.00 | 0.00 | 0.00 | 47 | 1017.8 |
| 20260503181547 | 16 | 149 | 4.8 | 14.5 | 0.00 | 0.00 | 0.00 | 47 | 1017.9 |
| 20260503181038 | 16 | 0 | 4.8 | 14.5 | 0.00 | 0.00 | 0.00 | 47 | 1018.0 |
| 20260503180541 | 15 | 292 | 3.2 | 14.5 | 0.00 | 0.00 | 0.00 | 47 | 1018.0 |
| 20260503180100 | 15 | 268 | 8.0 | 14.5 | 0.00 | 0.00 | 0.00 | 47 | 1018.0 |
| 20260503175541 | 15 | 240 | 0.0 | 11.3 | 0.00 | 0.00 | 0.00 | 49 | 1018.0 |
| 20260503175038 | 15 | 254 | 4.8 | 12.9 | 0.00 | 0.00 | 0.00 | 46 | 1018.1 |
| 20260503174546 | 15 | 243 | 3.2 | 17.7 | 0.00 | 0.00 | 0.00 | 47 | 1018.2 |
| 20260503174041 | 15 | 222 | 9.7 | 17.7 | 0.00 | 0.00 | 0.00 | 48 | 1018.1 |
| 20260503173538 | 15 | 263 | 6.4 | 12.9 | 0.00 | 0.00 | 0.00 | 49 | 1018.2 |
| 20260503173056 | 14 | 275 | 4.8 | 12.9 | 0.00 | 0.00 | 0.00 | 49 | 1018.2 |
| 20260503172540 | 14 | 181 | 4.8 | 12.9 | 0.00 | 0.00 | 0.00 | 48 | 1018.5 |
| 20260503172038 | 13 | 261 | 6.4 | 16.1 | 0.00 | 0.00 | 0.00 | 49 | 1018.5 |
| 20260503171547 | 13 | 305 | 6.4 | 17.7 | 0.00 | 0.00 | 0.00 | 49 | 1018.5 |
| 20260503171038 | 13 | 248 | 6.4 | 19.3 | 0.00 | 0.00 | 0.00 | 50 | 1018.7 |
| 20260503170539 | 13 | 245 | 8.0 | 19.3 | 0.00 | 0.00 | 0.00 | 51 | 1018.7 |
| 20260503160107 | 12 | 218 | 8.0 | 14.5 | 0.00 | 0.00 | 0.00 | 60 | 1019.4 |
| 20260503150538 | 11 | 46 | 4.8 | 12.9 | 0.00 | 0.00 | 0.00 | 65 | 1019.7 |
| 20260503131041 | 8 | 291 | 4.8 | 8.0 | 0.00 | 0.00 | 0.00 | 84 | 1019.4 |
| 20260503130614 | 8 | 256 | 0.0 | 4.8 | 0.00 | 0.00 | 0.00 | 85 | 1019.4 |
| 20260503110540 | 5 | 83 | 0.0 | 8.0 | 0.00 | 0.00 | 0.00 | 89 | 1018.3 |